Wind_Speed
33 34 46 60 57 56 52 35 42 46 40 37 45 52 42 38 35 35 34 34 36 34 33 30 23 25 25 26 24 23 23 27 28 31 26 26 28 27 29 29 29 31 31 28
37 49 70 44 44 44 45 45 47 43 39 40 42 43 42 41 40 38 38 38 38 37 31 24 23 25 25 23 20 23 25 26 28 27 24 25 24 25 25 26 31 30 28 26
46 62 39 47 47 42 47 46 45 44 35 35 40 46 47 44 43 43 43 42 37 34 27 22 26 20 17 21 22 22 24 26 24 22 17 17 19 20 22 27 29 27 23 24
39 48 46 46 49 49 51 44 39 36 34 36 33 34 51 42 39 38 37 32 30 25 24 21 26 17 17 17 20 22 19 19 20 13 14 14 16 19 24 24 24 25 23 23
47 42 51 51 57 46 58 35 36 34 32 36 41 33 48 33 36 35 30 29 29 25 20 21 25 20 18 19 17 15 16 16 13 14 13 14 17 21 23 21 22 20 22 17
41 37 39 56 50 40 41 38 36 32 34 28 42 34 48 42 40 34 30 26 22 23 21 26 20 20 17 15 14 12 12 13 14 12 13 15 17 19 17 18 18 19 14 10
42 41 38 39 44 46 38 41 26 25 27 27 32 33 45 36 33 30 29 27 17 18 28 24 19 18 16 16 11 9 11 12 12 13 13 15 15 13 14 13 15 13 12 9
39 39 44 44 42 56 51 50 30 32 14 22 35 37 41 27 29 30 23 15 15 21 25 22 18 15 16 13 9 8 10 12 13 11 12 11 11 13 11 10 12 13 11 4
29 42 37 46 33 40 57 49 59 34 31 29 28 27 23 25 22 16 20 24 19 18 23 22 15 16 15 11 8 9 10 11 10 10 10 10 10 9 9 12 10 8 4 2
22 19 46 38 43 38 50 52 40 46 28 24 20 19 14 8 9 16 18 19 25 21 25 20 17 18 14 9 8 9 9 9 9 10 7 10 8 8 8 9 6 5 3 2
12 14 26 46 51 44 48 44 51 39 35 17 16 15 16 15 15 8 16 21 25 23 25 19 18 18 13 9 8 9 7 7 9 8 7 8 6 6 7 6 3 2 2 3
16 13 26 34 38 43 47 44 47 33 35 32 14 11 4 6 10 11 14 18 24 23 23 21 17 16 12 9 8 6 5 7 8 5 7 5 4 4 5 3 1 1 2 3
12 18 21 8 26 44 45 49 41 44 27 33 17 15 5 5 9 16 14 18 24 24 21 18 18 13 11 9 7 4 5 7 5 5 5 2 3 2 3 2 1 2 3 4
12 22 24 10 16 37 46 48 42 43 30 27 34 11 9 10 15 12 13 22 22 22 21 17 12 11 9 9 4 4 5 5 4 3 3 2 2 2 1 1 2 3 4 4
8 30 39 20 14 14 42 39 42 41 36 28 30 20 11 15 13 11 9 18 24 25 20 13 12 8 7 6 4 4 4 3 3 2 1 1 4 4 1 4 4 3 4 7
7 22 27 25 27 19 14 40 41 36 40 26 17 25 20 11 7 5 9 18 23 22 19 14 11 7 6 4 6 5 2 3 3 4 2 4 5 4 3 2 5 4 3 5
14 11 14 11 21 17 17 28 33 31 39 30 22 16 17 14 8 7 6 18 22 21 21 12 7 5 5 4 7 5 2 2 5 5 4 4 5 5 3 3 6 5 2 4
14 15 9 7 15 6 17 22 21 32 29 30 23 19 15 11 7 8 3 17 22 20 20 14 8 6 4 6 8 6 3 3 7 7 6 5 7 5 6 5 5 6 7 5
15 12 6 10 20 9 10 12 21 24 24 20 22 23 15 17 13 6 9 8 19 19 18 12 9 7 3 5 7 7 4 4 8 8 7 5 6 6 6 4 4 5 7 7
14 11 7 14 8 8 3 2 14 16 16 11 12 15 14 9 14 13 13 15 16 19 18 16 11 7 3 6 8 8 5 5 9 9 8 6 5 5 7 6 6 5 5 8
14 11 10 10 10 5 6 3 18 18 5 1 6 14 22 17 17 15 19 19 21 18 20 19 13 6 4 5 8 8 6 6 9 11 9 7 4 4 7 8 7 4 1 5
10 6 6 7 4 1 4 2 8 7 6 4 1 14 23 25 24 22 18 18 16 17 19 23 17 10 8 6 9 9 7 7 9 11 11 9 6 5 6 8 8 7 7 8
4 9 3 4 3 6 12 13 9 8 5 5 3 3 6 9 12 22 25 22 18 15 18 25 21 13 8 7 10 9 8 7 8 10 10 10 9 7 6 7 8 9 10 12
7 1 2 4 0 4 4 4 3 1 2 0 6 3 3 4 6 13 20 23 19 16 22 28 26 18 11 9 8 11 10 9 8 9 10 10 10 9 8 7 7 8 11 12
5 4 5 7 3 5 3 5 5 4 6 6 3 2 4 4 3 7 14 19 19 18 21 30 29 23 16 11 9 11 12 12 11 10 10 10 10 10 10 10 9 9 10 11
10 8 7 10 8 5 9 10 11 8 9 8 8 3 5 5 8 8 9 18 20 20 20 25 29 27 22 16 13 8 9 13 12 13 12 11 11 10 11 11 11 10 10 10
Wind_Direction
220 211 219 225 225 236 240 243 249 252 255 250 255 259 263 266 265 267 266 265 273 275 286 288 284 271 261 257 257 255 259 269 270 271 275 265 260 265 274 282 290 298 297 296
213 218 230 228 232 235 239 245 250 255 252 253 257 262 262 261 263 262 264 264 270 280 278 275 267 265 256 254 252 257 269 279 276 273 265 259 262 271 279 292 297 296 298 298
217 228 231 228 231 232 237 237 243 249 254 256 259 265 263 260 262 265 265 266 270 271 263 266 263 258 251 249 257 267 276 284 286 279 261 259 266 275 289 291 291 296 298 299
229 233 229 230 231 227 235 233 242 249 253 256 250 265 261 263 265 265 266 268 259 262 268 251 249 244 250 260 274 276 276 290 285 256 262 267 275 289 289 295 289 303 306 300
232 228 227 229 229 224 237 234 239 243 249 256 254 257 266 268 266 266 262 259 264 254 252 236 240 247 264 270 261 269 288 286 259 266 268 275 286 285 288 291 298 305 305 303
239 232 230 229 229 230 235 235 238 239 242 246 249 250 267 264 264 266 256 259 260 250 235 228 242 248 262 249 250 274 281 274 268 266 277 284 288 287 293 304 308 309 299 300
234 233 230 225 226 224 222 222 226 233 233 245 251 248 259 271 270 260 255 253 249 238 216 227 235 250 234 241 256 270 280 271 270 279 282 284 288 292 296 305 308 311 310 300
229 230 222 214 220 215 215 213 215 219 218 239 242 244 258 276 266 255 240 214 227 214 222 221 231 226 229 235 253 272 268 271 278 280 283 288 295 299 309 316 310 314 316 280
245 232 225 219 216 213 213 214 218 239 235 244 254 249 246 259 261 243 224 233 217 204 210 216 226 227 220 235 254 267 269 279 277 284 286 294 299 302 311 314 312 325 335 259
253 256 222 219 218 220 218 215 213 226 240 248 233 252 255 245 231 235 223 213 202 206 203 212 230 218 218 236 256 265 279 274 285 285 286 298 312 312 312 314 304 319 304 244
250 241 235 217 209 212 207 210 211 217 226 234 252 257 240 242 238 240 209 200 194 201 203 216 224 206 224 239 258 270 270 277 292 282 288 304 309 315 311 310 303 323 207 162
228 256 253 214 216 209 208 208 204 217 216 232 286 205 177 219 207 195 176 171 185 206 205 217 210 210 224 233 261 262 264 284 301 284 292 311 306 299 308 300 144 140 169 143
217 233 257 220 217 203 213 207 209 212 219 213 229 204 223 219 192 182 180 172 204 199 199 203 197 210 223 232 262 251 259 291 306 289 299 300 283 282 329 259 203 186 161 156
243 240 246 236 230 197 208 202 205 201 215 196 219 127 162 166 158 163 182 203 202 185 183 185 189 201 215 223 264 241 261 303 295 282 288 295 221 165 37 357 207 206 183 178
267 242 233 250 280 300 202 206 202 200 204 215 201 213 171 154 137 159 162 166 169 170 173 178 183 191 211 219 240 230 263 308 263 231 257 214 173 167 62 50 106 110 151 177
318 259 243 247 260 272 212 207 201 206 199 212 172 195 180 134 161 160 176 179 176 176 173 174 179 191 207 212 222 220 254 269 219 188 134 137 194 160 178 77 61 34 67 182
298 293 227 231 240 269 221 195 200 197 198 203 210 189 212 208 218 190 201 187 185 184 181 176 172 186 204 217 217 208 223 231 196 177 142 139 126 141 142 142 70 35 57 173
269 300 267 221 247 215 198 197 199 199 198 207 211 218 217 198 174 142 117 188 183 188 186 186 182 194 207 226 212 207 193 208 188 180 166 153 120 116 106 114 98 48 64 118
244 273 301 183 211 109 138 139 189 198 191 206 212 216 202 205 204 204 186 147 189 189 190 187 189 190 197 230 206 195 175 199 184 184 178 175 142 126 116 118 112 101 87 63
223 239 266 212 222 204 204 60 173 163 152 180 183 197 207 191 189 210 209 166 162 200 192 194 199 186 205 210 199 192 167 189 187 191 180 181 161 151 135 129 118 114 74 38
203 223 239 252 243 104 38 352 181 191 118 122 183 210 212 202 214 208 193 187 176 155 198 200 207 162 193 192 193 193 173 183 190 199 188 173 170 157 138 135 130 136 81 37
194 223 241 220 244 99 102 168 159 139 71 47 142 216 222 226 216 217 210 190 185 158 192 201 205 185 203 190 189 189 184 189 195 201 199 186 176 176 147 146 143 140 113 93
196 220 244 272 66 68 78 90 112 99 77 35 24 314 241 227 208 213 218 208 198 181 188 198 201 192 201 190 189 193 191 190 196 202 206 193 188 186 168 155 146 134 123 116
222 70 238 305 107 4 76 71 43 63 53 324 359 318 327 256 218 219 213 216 211 189 186 196 203 197 192 194 186 196 194 191 198 206 204 199 197 194 185 172 158 137 129 126
348 9 309 283 59 116 236 264 282 247 240 238 343 334 338 248 249 213 207 205 198 190 186 199 206 208 201 199 198 208 203 194 199 202 202 202 203 201 194 187 173 156 149 146
23 5 336 318 336 320 290 266 273 258 261 248 246 256 345 333 232 215 204 204 195 197 185 193 205 213 212 209 209 210 212 207 205 207 204 203 207 206 208 204 194 186 170 167
Height
3063 3072 3065 3053 3065 3072 3081 3086 3082 3085 3090 3093 3089 3086 3089 3095 3096 3094 3094 3094 3094 3094 3094 3092 3089 3084 3085 3085 3085 3085 3086 3086 3085 3083 3082 3082 3082 3083 3082 3081 3079 3077 3075 3071
3061 3049 3031 3066 3070 3074 3077 3079 3074 3080 3083 3084 3082 3078 3082 3084 3085 3086 3086 3085 3086 3087 3087 3085 3083 3080 3080 3080 3081 3081 3081 3081 3079 3078 3077 3076 3078 3077 3077 3074 3072 3071 3068 3066
3042 3024 3059 3057 3061 3068 3066 3067 3071 3073 3078 3076 3076 3071 3070 3074 3076 3077 3078 3077 3079 3078 3078 3079 3076 3076 3075 3076 3076 3077 3077 3076 3074 3073 3072 3073 3073 3073 3072 3070 3067 3065 3063 3060
3035 3036 3044 3048 3050 3056 3052 3062 3069 3071 3074 3069 3074 3060 3055 3065 3067 3068 3067 3068 3071 3071 3072 3073 3069 3071 3072 3072 3072 3072 3072 3071 3070 3069 3069 3070 3070 3069 3066 3066 3063 3060 3057 3055
3015 3029 3031 3036 3029 3052 3037 3063 3064 3067 3068 3068 3061 3063 3041 3059 3056 3058 3060 3061 3063 3064 3066 3066 3064 3066 3067 3067 3068 3068 3068 3067 3066 3066 3066 3066 3066 3064 3063 3061 3058 3055 3053 3051
3015 3023 3026 3021 3034 3042 3050 3057 3060 3061 3061 3054 3049 3059 3035 3048 3047 3050 3053 3055 3056 3057 3060 3058 3060 3062 3063 3064 3064 3064 3064 3063 3064 3063 3063 3062 3061 3060 3058 3056 3054 3051 3049 3048
3010 3012 3015 3021 3028 3032 3041 3047 3049 3050 3043 3021 3047 3049 3032 3039 3041 3041 3045 3047 3049 3050 3048 3053 3056 3057 3059 3060 3060 3061 3060 3061 3061 3060 3060 3058 3057 3056 3055 3053 3051 3049 3048 3046
3000 3005 3003 3003 3010 3014 3024 3031 3027 3023 3025 3029 3037 3033 3029 3032 3032 3035 3038 3040 3044 3043 3045 3050 3052 3054 3055 3057 3057 3057 3057 3058 3058 3057 3056 3055 3054 3053 3051 3051 3048 3047 3045 3044
2993 2991 2996 3000 3005 3010 3012 3017 3015 3028 3023 3022 3019 3018 3025 3026 3026 3027 3031 3035 3039 3040 3042 3046 3048 3051 3052 3054 3054 3054 3055 3055 3055 3054 3053 3052 3051 3050 3050 3049 3047 3046 3045 3044
2991 2988 2986 2990 3002 3002 3003 3012 3025 3024 3019 3013 3013 3016 3016 3021 3021 3022 3026 3030 3034 3036 3039 3042 3046 3048 3050 3051 3051 3052 3052 3053 3052 3051 3050 3050 3048 3048 3048 3047 3046 3045 3045 3045
2991 2989 2981 2985 2981 2989 2994 3000 3008 3017 3015 3012 3014 3012 3013 3017 3020 3020 3022 3026 3031 3032 3036 3040 3043 3045 3048 3049 3049 3050 3050 3050 3050 3049 3049 3047 3047 3047 3047 3046 3045 3045 3045 3045
2990 2984 2977 2973 2979 2987 2991 2995 3003 3002 3008 3011 3010 3012 3012 3015 3017 3019 3021 3024 3029 3031 3034 3038 3041 3044 3046 3047 3047 3048 3048 3048 3048 3047 3046 3046 3046 3047 3046 3046 3045 3046 3046 3046
2985 2979 2973 2969 2976 2979 2980 2988 2995 3005 3006 3006 3008 3007 3009 3014 3014 3018 3021 3024 3025 3029 3033 3036 3040 3042 3043 3044 3046 3046 3047 3047 3046 3045 3046 3046 3046 3046 3046 3046 3046 3046 3046 3046
2980 2977 2970 2966 2970 2976 2977 2980 2987 2997 3000 3001 3005 3007 3011 3014 3016 3018 3019 3021 3024 3028 3032 3036 3039 3040 3042 3043 3044 3045 3045 3046 3045 3045 3045 3045 3046 3047 3046 3046 3045 3046 3047 3047
2978 2971 2969 2972 2969 2966 2971 2975 2982 2987 2997 2996 3002 3006 3010 3013 3016 3019 3019 3021 3024 3028 3032 3035 3037 3039 3040 3041 3043 3044 3044 3044 3044 3045 3045 3045 3046 3047 3047 3047 3046 3047 3047 3047
2974 2965 2969 2976 2974 2970 2965 2973 2979 2985 2994 2995 2999 3006 3009 3013 3017 3020 3021 3022 3025 3029 3031 3034 3036 3037 3039 3040 3042 3043 3043 3044 3044 3045 3046 3046 3046 3048 3048 3048 3048 3048 3048 3047
2975 2968 2970 2974 2974 2971 2968 2969 2973 2982 2990 2995 3000 3006 3010 3014 3017 3020 3021 3022 3026 3030 3032 3033 3035 3037 3038 3040 3042 3042 3043 3043 3045 3046 3047 3048 3047 3048 3048 3048 3049 3048 3048 3047
2975 2971 2970 2969 2973 2972 2967 2971 2975 2981 2990 2997 3003 3006 3010 3014 3017 3019 3021 3021 3025 3030 3032 3033 3035 3036 3037 3039 3041 3042 3042 3043 3045 3047 3048 3049 3048 3049 3048 3050 3050 3050 3049 3048
2974 2973 2972 2973 2974 2961 2970 2971 2979 2981 2990 2997 3000 3006 3009 3013 3015 3016 3016 3021 3025 3029 3032 3032 3034 3035 3036 3039 3041 3042 3042 3044 3045 3047 3049 3050 3050 3050 3050 3051 3051 3051 3051 3050
2973 2974 2976 2973 2968 2967 2965 2970 2974 2979 2985 2989 2993 2998 3000 3004 3012 3013 3015 3017 3019 3028 3031 3031 3033 3034 3036 3038 3040 3042 3042 3044 3045 3048 3049 3050 3051 3051 3052 3053 3052 3053 3053 3052
2971 2974 2974 2971 2963 2967 2970 2973 2974 2982 2989 2986 2990 2993 2998 3004 3007 3008 3012 3016 3019 3023 3029 3030 3032 3034 3036 3038 3040 3042 3043 3044 3046 3048 3050 3051 3052 3052 3053 3054 3054 3055 3055 3054
2974 2972 2970 2973 2969 2966 2970 2973 2977 2981 2984 2986 2987 2990 2995 2997 3002 3006 3009 3013 3017 3020 3027 3028 3031 3033 3035 3037 3039 3042 3043 3045 3046 3048 3050 3051 3052 3053 3055 3056 3056 3056 3056 3056
2976 2974 2972 2972 2973 2970 2972 2973 2975 2979 2983 2985 2988 2989 2991 2994 2998 3002 3006 3010 3014 3017 3023 3026 3030 3033 3035 3036 3039 3041 3043 3045 3047 3048 3050 3051 3053 3054 3056 3057 3058 3058 3059 3060
2971 2971 2973 2973 2971 2972 2971 2974 2974 2977 2979 2981 2986 2986 2989 2991 2995 2998 3002 3006 3011 3015 3019 3024 3028 3032 3034 3036 3038 3041 3043 3045 3047 3049 3050 3052 3053 3055 3057 3058 3060 3060 3061 3063
2973 2973 2973 2974 2969 2970 2971 2972 2974 2976 2977 2978 2981 2982 2986 2988 2991 2994 2998 3002 3006 3011 3016 3021 3025 3030 3033 3036 3038 3039 3042 3044 3047 3049 3051 3052 3054 3056 3058 3059 3061 3063 3064 3065
2977 2976 2976 2974 2971 2971 2971 2972 2973 2975 2975 2976 2978 2981 2983 2985 2986 2990 2993 2997 3003 3008 3013 3018 3023 3027 3031 3034 3037 3039 3041 3043 3046 3048 3050 3052 3054 3056 3058 3060 3062 3063 3065 3068